Home   Weather   Long Beach   Past weeks

Flag for USA Past Weather in Long Beach, California, USA — Yesterday and Last 2 Weeks

Now
50 °F

Clear.


Feels Like: 50 °F
Forecast: 45 / 67 °F
Wind: No wind

Location: Long Beach Airport

Current Time: Dec 3, 2016 at 3:56:50 am

Latest Report: Dec 3, 2016 at 2:53 am


Visibility: 10 mi

Pressure: 30.08 "Hg

Humidity: 25%

Dew Point: 15 °F

Location of Long BeachLocation

Past Weather in Long Beach — Graph

°F

Long Beach Temperature Yesterday

Maximum temperature yesterday: 66 °F (at 12:53 pm)
Minimum temperature yesterday: 46 °F (at 4:53 am)
Average temperature yesterday: 57 °F

High & Low Weather Summary for the Past Weeks

 TemperatureHumidityPressure
High82 °F (Nov 24, 1:53 pm)97% (Nov 20, 4:53 pm)30.17 "Hg (Nov 20, 4:53 pm)
Low45 °F (Nov 30, 6:53 am)4% (Nov 18, 1:53 pm)29.82 "Hg (Nov 28, 3:53 pm)
Average58 °F62%30.02 "Hg
* Reported Nov 18 1:53 am — Dec 3 1:53 am, Long Beach, Weather by CustomWeather, © 2016

Note: Actual official high and low records may vary slightly from our data, if they occured in-between our weather recording intervals... More about our weather records

Advertising

Long Beach Weather History for the Previous 24 Hours

Scroll right to see more
 ConditionsComfort  
Time TempWeatherWind HumidityBarometerVisibility
1:53 am
Sat, Dec 3
53 °FClear.No wind18%30.08 "Hg10 mi
12:53 am57 °FClear.8 mph14%30.07 "Hg10 mi
11:53 pm
Fri, Dec 2
57 °FClear.9 mph14%30.07 "Hg10 mi
10:53 pm56 °FClear.6 mph15%30.08 "Hg10 mi
9:53 pm59 °FClear.5 mph12%30.09 "Hg10 mi
8:53 pm58 °FClear.No wind13%30.06 "Hg10 mi
7:53 pm58 °FClear.10 mph13%30.05 "Hg10 mi
6:53 pm59 °FClear.14 mph12%30.04 "Hg10 mi
5:53 pm60 °FClear.8 mph12%30.02 "Hg10 mi
4:53 pm63 °FClear.8 mph11%30.01 "Hg10 mi
3:53 pm65 °FSunny.No wind14%30.00 "Hg10 mi
2:53 pm65 °FSunny.3 mph16%29.98 "Hg10 mi
1:53 pm65 °FSunny.7 mph14%29.97 "Hg10 mi
12:53 pm66 °FSunny.5 mph13%29.99 "Hg10 mi
11:53 am64 °FSunny.No wind13%30.01 "Hg10 mi
10:53 am64 °FSunny.8 mph15%30.02 "Hg10 mi
9:53 am61 °FSunny.13 mph19%30.03 "Hg10 mi
8:53 am58 °FSunny.3 mph39%30.03 "Hg10 mi
7:53 am52 °FSunny.No wind66%30.01 "Hg9 mi
6:53 am46 °FSunny.5 mph86%30.00 "Hg7 mi
5:53 am48 °FClear.6 mph86%29.97 "Hg7 mi
4:53 am46 °FClear.No wind86%29.96 "Hg8 mi
3:53 am48 °FClear.No wind86%29.94 "Hg8 mi
Weather by CustomWeather, © 2016

See weather overviewHow to use our weather pages